| time (UTC) | temp F | wind direction | speed MPH | gust MPH | rain 1hr in | rain 24hr in | rain mn in | humidity % | barometer mb |
| 20260503224523 | 76 | 359 | 2.0 | 7.0 | 0.00 | 1.07 | 0.85 | 33 | 1018.1 |
| 20260503223028 | 77 | 308 | 1.0 | 6.0 | 0.00 | 1.07 | 0.85 | 32 | 1017.9 |
| 20260503221527 | 77 | 7 | 2.0 | 4.0 | 0.00 | 1.07 | 0.85 | 33 | 1017.9 |
| 20260503220019 | 77 | 31 | 2.0 | 4.0 | 0.00 | 1.07 | 0.85 | 36 | 1018.0 |
| 20260503214520 | 77 | 1 | 4.0 | 7.0 | 0.00 | 1.08 | 0.85 | 33 | 1018.0 |
| 20260503213029 | 77 | 359 | 3.0 | 6.0 | 0.00 | 1.08 | 0.85 | 34 | 1018.3 |
| 20260503211534 | 77 | 32 | 2.0 | 8.0 | 0.00 | 1.08 | 0.85 | 35 | 1018.3 |
| 20260503210016 | 76 | 134 | 1.0 | 8.0 | 0.00 | 1.08 | 0.85 | 35 | 1018.7 |
| 20260503204522 | 77 | 13 | 3.0 | 6.0 | 0.00 | 1.08 | 0.85 | 32 | 1018.8 |
| 20260503203024 | 76 | 234 | 1.0 | 7.0 | 0.00 | 1.09 | 0.85 | 37 | 1019.1 |
| 20260503201510 | 76 | 359 | 4.0 | 9.0 | 0.00 | 1.09 | 0.85 | 35 | 1019.1 |
| 20260503200015 | 76 | 21 | 2.0 | 6.0 | 0.00 | 1.09 | 0.85 | 32 | 1019.2 |
| 20260503194519 | 76 | 252 | 2.0 | 4.0 | 0.00 | 1.09 | 0.85 | 33 | 1019.7 |
| 20260503193005 | 76 | 313 | 2.0 | 6.0 | 0.00 | 1.09 | 0.85 | 36 | 1020.0 |
| 20260503191509 | 75 | 310 | 3.0 | 5.0 | 0.00 | 1.10 | 0.85 | 38 | 1020.3 |
| 20260503190029 | 75 | 342 | 4.0 | 10.0 | 0.00 | 1.10 | 0.85 | 36 | 1020.3 |
| 20260503184518 | 76 | 359 | 3.0 | 7.0 | 0.00 | 1.10 | 0.85 | 35 | 1020.9 |
| 20260503183023 | 74 | 341 | 1.0 | 8.0 | 0.00 | 1.10 | 0.85 | 33 | 1020.8 |
| 20260503181504 | 75 | 158 | 1.0 | 11.0 | 0.00 | 1.11 | 0.85 | 35 | 1020.9 |
| 20260503180018 | 74 | 344 | 1.0 | 9.0 | 0.00 | 1.11 | 0.85 | 35 | 1021.2 |
| 20260503174513 | 74 | 341 | 1.0 | 7.0 | 0.00 | 1.11 | 0.85 | 34 | 1021.1 |
| 20260503173020 | 74 | 206 | 3.0 | 9.0 | 0.00 | 1.11 | 0.85 | 39 | 1021.2 |
| 20260503171534 | 73 | 158 | 3.0 | 9.0 | 0.00 | 1.12 | 0.85 | 40 | 1021.4 |
| 20260503081504 | 48 | 323 | 0.0 | 0.0 | 0.12 | 0.69 | 0.33 | 87 | 1019.9 |
| 20260503054507 | 51 | 323 | 0.0 | 0.0 | 0.10 | 0.45 | 0.07 | 87 | 1019.5 |
| 20260503053010 | 51 | 323 | 0.0 | 0.0 | 0.10 | 0.44 | 0.05 | 87 | 1019.4 |
| 20260503051506 | 51 | 323 | 0.0 | 0.0 | 0.10 | 0.41 | 0.02 | 88 | 1019.2 |
| 20260503050006 | 51 | 323 | 0.0 | 0.0 | 0.10 | 0.39 | 0.00 | 88 | 1019.1 |
| 20260503044509 | 51 | 323 | 0.0 | 0.0 | 0.09 | 0.37 | 0.36 | 88 | 1019.0 |
| 20260503043011 | 51 | 323 | 0.0 | 0.0 | 0.09 | 0.35 | 0.34 | 88 | 1018.9 |
| 20260503041514 | 51 | 323 | 0.0 | 0.0 | 0.08 | 0.32 | 0.31 | 86 | 1018.9 |
| 20260503040012 | 52 | 323 | 0.0 | 0.0 | 0.07 | 0.31 | 0.29 | 84 | 1018.8 |
| 20260503031514 | 54 | 323 | 0.0 | 0.0 | 0.03 | 0.26 | 0.23 | 77 | 1018.6 |
| 20260503030013 | 55 | 323 | 0.0 | 0.0 | 0.02 | 0.25 | 0.22 | 74 | 1018.4 |
| 20260503024514 | 56 | 323 | 0.0 | 0.0 | 0.02 | 0.24 | 0.21 | 72 | 1018.3 |
| 20260503023008 | 57 | 323 | 0.0 | 0.0 | 0.01 | 0.24 | 0.20 | 70 | 1018.0 |
| 20260503020014 | 60 | 323 | 0.0 | 0.0 | 0.01 | 0.25 | 0.20 | 62 | 1017.6 |
| 20260503014522 | 61 | 8 | 0.0 | 1.0 | 0.01 | 0.24 | 0.19 | 61 | 1017.4 |
| 20260503013014 | 62 | 324 | 0.0 | 0.0 | 0.01 | 0.24 | 0.19 | 58 | 1017.3 |
| 20260503011513 | 63 | 328 | 1.0 | 4.0 | 0.01 | 0.25 | 0.19 | 54 | 1017.1 |
| 20260503010017 | 64 | 338 | 1.0 | 4.0 | 0.01 | 0.25 | 0.19 | 54 | 1016.5 |
| 20260503004524 | 65 | 352 | 0.0 | 3.0 | 0.00 | 0.25 | 0.18 | 52 | 1016.4 |
| 20260503003007 | 66 | 258 | 0.0 | 8.0 | 0.00 | 0.25 | 0.18 | 48 | 1015.8 |
| 20260503001510 | 67 | 343 | 3.0 | 7.0 | 0.01 | 0.26 | 0.18 | 46 | 1015.5 |
| 20260502234520 | 69 | 335 | 4.0 | 8.0 | 0.01 | 0.27 | 0.18 | 46 | 1015.0 |
| 20260502233020 | 69 | 356 | 4.0 | 9.0 | 0.01 | 0.28 | 0.18 | 45 | 1015.1 |